Overview Statistics Trail Chart Weather Telemetry Raw packets
 

This is the latest recevied weather packets stored in our database for station/object KC0RKM-13. If no packets are shown the sender has not sent any weather packets the latest 10 day(s).

<< 19 20 21 22 23 24 25 >>
Time Temp. Humidity Pressure Rain* Wind** Luminosity Snow
1788275404 30° C 49% 1015.4 hPa 0 mm - - -
1788274804 29.44° C 50% 1015.5 hPa 0 mm - - -
1788274204 28.89° C 51% 1015.7 hPa 0 mm - - -
1788273604 28.89° C 53% 1015.5 hPa 0 mm - - -
1788273004 28.33° C 54% 1015.6 hPa 0 mm - - -
1788272404 27.78° C 54% 1016.2 hPa 0 mm - - -
1788271803 27.78° C 54% 1015.9 hPa 0 mm - - -
1788271203 27.22° C 55% 1016.1 hPa 0 mm - - -
1788270604 27.22° C 56% 1016.2 hPa 0 mm - - -
1788270003 26.67° C 58% 1015.9 hPa 0 mm - - -
1788269403 26.11° C 58% 1016 hPa 0 mm - - -
1788268804 26.11° C 59% 1016.2 hPa 0 mm - - -
1788268203 26.11° C 58% 1016.1 hPa 0 mm - - -
1788267605 25.56° C 59% 1016 hPa 0 mm - - -
1788267004 25° C 62% 1016 hPa 0 mm - - -
1788266403 24.44° C 62% 1016.1 hPa 0 mm - - -
1788265804 24.44° C 62% 1016 hPa 0 mm - - -
1788265204 23.89° C 63% 1016 hPa 0 mm - - -
1788264603 23.89° C 63% 1016 hPa 0 mm - - -
1788264025 23.89° C 63% 1015.8 hPa 0 mm - - -
1788263404 24.44° C 62% 1015.5 hPa 0 mm - - -
1788262803 24.44° C 62% 1015.7 hPa 0 mm - - -
1788262219 24.44° C 62% 1015.5 hPa 0 mm - - -
1788261603 24.44° C 61% 1015.4 hPa 0 mm - - -
1788261004 25° C 60% 1015.6 hPa 0 mm - - -

* Rain latest hour (hover to see other rain measurements)
** Current wind speed in m/s (hover to see current wind gust speed)